When you browse on this site, cookies collect data to enhance your experience and personalize the content and advertising you see.
Visit our Privacy Policy to learn more. By continuing to use the site, you agree to this use of cookies and data.
  • En España
  • Lista de países
  • Para 7 días
  • Temperatura del agua
  • El tiempo en el mapa
  • Informadores
  • user-avatar
    Iniciar sesión

    Tiempo cada hora Zaafrana

    Hoy, 14 Diciembre, Sábado

    Tiempo Temperatura Precipitaciones Viento Presión Humedad
    00:00 +12°C° 0 mm 2 mps 747 mmHg 64%
    01:00 +12°C° 0 mm 2 mps 746 mmHg 63%
    02:00 +11°C° 0 mm 3 mps 746 mmHg 61%
    03:00 +10°C° 0 mm 3 mps 746 mmHg 62%
    04:00 +10°C° 0 mm 3 mps 746 mmHg 62%
    05:00 +10°C° 0 mm 3 mps 747 mmHg 62%
    06:00 +11°C° 0 mm 3 mps 747 mmHg 58%
    07:00 +12°C° 0 mm 3 mps 747 mmHg 54%
    08:00 +14°C° 0 mm 2 mps 747 mmHg 49%
    09:00 +16°C° 0 mm 3 mps 747 mmHg 43%
    10:00 +17°C° 0 mm 4 mps 747 mmHg 36%
    11:00 +19°C° 0 mm 5 mps 747 mmHg 29%
    12:00 +19°C° 0 mm 6 mps 747 mmHg 28%
    13:00 +20°C° 0 mm 6 mps 746 mmHg 27%
    14:00 +20°C° 0 mm 6 mps 745 mmHg 26%
    15:00 +19°C° 0 mm 5 mps 745 mmHg 31%
    16:00 +17°C° 0 mm 4 mps 745 mmHg 35%
    17:00 +14°C° 0 mm 3 mps 745 mmHg 40%
    18:00 +14°C° 0 mm 3 mps 745 mmHg 43%
    19:00 +13°C° 0 mm 3 mps 746 mmHg 45%
    20:00 +13°C° 0 mm 2 mps 746 mmHg 48%
    21:00 +12°C° 0 mm 3 mps 746 mmHg 49%
    22:00 +11°C° 0 mm 3 mps 746 mmHg 50%
    23:00 +11°C° 0 mm 3 mps 746 mmHg 51%

    Mañana, 15 Diciembre, Domingo

    Tiempo Temperatura Precipitaciones Viento Presión Humedad
    00:00 +11°C° 0 mm 3 mps 746 mmHg 51%
    01:00 +11°C° 0 mm 3 mps 745 mmHg 52%
    02:00 +11°C° 0 mm 3 mps 745 mmHg 52%
    03:00 +11°C° 0 mm 3 mps 745 mmHg 49%
    04:00 +11°C° 0 mm 3 mps 745 mmHg 46%
    05:00 +10°C° 0 mm 3 mps 744 mmHg 43%
    06:00 +11°C° 0 mm 4 mps 745 mmHg 41%
    07:00 +12°C° 0 mm 5 mps 745 mmHg 39%
    08:00 +13°C° 0 mm 5 mps 745 mmHg 37%
    09:00 +12°C° 0.6 mm 5 mps 745 mmHg 43%
    10:00 +12°C° 0.6 mm 4 mps 745 mmHg 49%
    11:00 +12°C° 0.6 mm 4 mps 745 mmHg 55%
    12:00 +13°C° 0 mm 4 mps 745 mmHg 52%
    13:00 +14°C° 0 mm 4 mps 745 mmHg 48%
    14:00 +16°C° 0 mm 5 mps 745 mmHg 44%
    15:00 +15°C° 0 mm 4 mps 745 mmHg 49%
    16:00 +14°C° 0 mm 3 mps 745 mmHg 53%
    17:00 +14°C° 0 mm 2 mps 745 mmHg 57%
    18:00 +14°C° 0 mm 1 mps 746 mmHg 61%
    19:00 +13°C° 0 mm 1 mps 746 mmHg 65%
    20:00 +13°C° 0 mm 1 mps 747 mmHg 69%
    21:00 +12°C° 0 mm 1 mps 747 mmHg 72%
    22:00 +12°C° 0 mm 1 mps 747 mmHg 76%
    23:00 +11°C° 0 mm 1 mps 748 mmHg 79%

    Pasado mañana, 16 Diciembre, Lunes

    Tiempo Temperatura Precipitaciones Viento Presión Humedad
    00:00 +11°C° 0 mm 1 mps 748 mmHg 78%
    01:00 +10°C° 0 mm 2 mps 748 mmHg 77%
    02:00 +12°C° 0 mm 2 mps 748 mmHg 76%
    03:00 +10°C° 0 mm 2 mps 748 mmHg 77%
    04:00 +10°C° 0 mm 2 mps 748 mmHg 78%
    05:00 +10°C° 0 mm 2 mps 748 mmHg 78%
    06:00 +12°C° 0 mm 2 mps 749 mmHg 75%
    07:00 +12°C° 0 mm 3 mps 749 mmHg 71%
    08:00 +12°C° 0 mm 3 mps 750 mmHg 67%
    09:00 +14°C° 0 mm 4 mps 750 mmHg 60%
    10:00 +16°C° 0 mm 6 mps 750 mmHg 54%
    11:00 +17°C° 0 mm 7 mps 750 mmHg 47%
    12:00 +18°C° 0 mm 7 mps 750 mmHg 46%
    13:00 +18°C° 0 mm 7 mps 749 mmHg 45%
    14:00 +20°C° 0 mm 7 mps 749 mmHg 44%
    15:00 +19°C° 0 mm 6 mps 749 mmHg 49%
    16:00 +16°C° 0 mm 5 mps 749 mmHg 55%
    17:00 +15°C° 0 mm 4 mps 749 mmHg 61%
    18:00 +15°C° 0 mm 4 mps 750 mmHg 67%
    19:00 +14°C° 0 mm 4 mps 750 mmHg 73%
    20:00 +14°C° 0 mm 4 mps 750 mmHg 78%
    21:00 +13°C° 0 mm 4 mps 751 mmHg 81%
    22:00 +13°C° 0 mm 4 mps 751 mmHg 84%
    23:00 +13°C° 0 mm 3 mps 751 mmHg 86%

    17 Diciembre, Martes

    Tiempo Temperatura Precipitaciones Viento Presión Humedad
    00:00 +12°C° 0 mm 3 mps 751 mmHg 87%
    01:00 +12°C° 0 mm 3 mps 750 mmHg 88%
    02:00 +12°C° 0 mm 3 mps 750 mmHg 89%
    03:00 +12°C° 0 mm 3 mps 750 mmHg 90%
    04:00 +12°C° 0 mm 3 mps 751 mmHg 90%
    05:00 +12°C° 0 mm 3 mps 751 mmHg 90%
    06:00 +12°C° 0 mm 3 mps 751 mmHg 88%
    07:00 +13°C° 0 mm 3 mps 751 mmHg 86%
    08:00 +14°C° 0 mm 3 mps 752 mmHg 84%
    09:00 +15°C° 0 mm 4 mps 752 mmHg 74%
    10:00 +18°C° 0 mm 4 mps 752 mmHg 63%
    11:00 +19°C° 0 mm 5 mps 752 mmHg 53%
    12:00 +19°C° 0 mm 5 mps 751 mmHg 50%
    13:00 +20°C° 0 mm 6 mps 751 mmHg 48%
    14:00 +20°C° 0 mm 6 mps 750 mmHg 46%
    15:00 +19°C° 0 mm 5 mps 751 mmHg 53%
    16:00 +18°C° 0 mm 4 mps 751 mmHg 60%
    17:00 +17°C° 0 mm 4 mps 751 mmHg 67%
    18:00 +16°C° 0 mm 3 mps 751 mmHg 71%
    19:00 +14°C° 0 mm 3 mps 752 mmHg 76%
    20:00 +14°C° 0 mm 3 mps 752 mmHg 80%
    21:00 +13°C° 0 mm 3 mps 752 mmHg 82%
    22:00 +13°C° 0 mm 3 mps 752 mmHg 84%
    23:00 +13°C° 0 mm 3 mps 752 mmHg 86%

    18 Diciembre, Miércoles

    Tiempo Temperatura Precipitaciones Viento Presión Humedad
    00:00 +13°C° 0 mm 3 mps 752 mmHg 86%
    01:00 +13°C° 0 mm 3 mps 752 mmHg 87%
    02:00 +12°C° 0 mm 3 mps 752 mmHg 87%
    03:00 +12°C° 0 mm 3 mps 752 mmHg 87%
    04:00 +12°C° 0 mm 3 mps 752 mmHg 86%
    05:00 +12°C° 0 mm 3 mps 752 mmHg 86%
    06:00 +12°C° 0 mm 3 mps 752 mmHg 81%
    07:00 +13°C° 0 mm 3 mps 753 mmHg 76%
    08:00 +13°C° 0 mm 3 mps 753 mmHg 71%
    09:00 +15°C° 0 mm 4 mps 753 mmHg 61%
    10:00 +18°C° 0 mm 4 mps 753 mmHg 51%
    11:00 +20°C° 0 mm 5 mps 753 mmHg 40%
    12:00 +20°C° 0 mm 4 mps 752 mmHg 37%
    13:00 +21°C° 0 mm 4 mps 752 mmHg 33%
    14:00 +21°C° 0 mm 4 mps 751 mmHg 30%
    15:00 +20°C° 0 mm 4 mps 751 mmHg 33%
    16:00 +18°C° 0 mm 3 mps 751 mmHg 36%
    17:00 +17°C° 0 mm 2 mps 751 mmHg 39%
    18:00 +16°C° 0 mm 3 mps 752 mmHg 43%
    19:00 +16°C° 0 mm 3 mps 752 mmHg 47%
    20:00 +14°C° 0 mm 3 mps 752 mmHg 51%
    21:00 +14°C° 0 mm 3 mps 752 mmHg 53%
    22:00 +14°C° 0 mm 3 mps 752 mmHg 55%
    23:00 +13°C° 0 mm 3 mps 752 mmHg 58%

    19 Diciembre, Jueves

    Tiempo Temperatura Precipitaciones Viento Presión Humedad
    00:00 +13°C° 0 mm 3 mps 752 mmHg 57%
    01:00 +12°C° 0 mm 3 mps 752 mmHg 56%
    02:00 +13°C° 0 mm 2 mps 752 mmHg 56%
    03:00 +13°C° 0 mm 2 mps 752 mmHg 55%
    04:00 +13°C° 0 mm 2 mps 752 mmHg 55%
    05:00 +12°C° 0 mm 2 mps 751 mmHg 54%
    06:00 +13°C° 0 mm 2 mps 752 mmHg 49%
    07:00 +14°C° 0 mm 2 mps 752 mmHg 45%
    08:00 +15°C° 0 mm 2 mps 752 mmHg 41%
    09:00 +17°C° 0 mm 2 mps 752 mmHg 36%
    10:00 +19°C° 0 mm 2 mps 752 mmHg 31%
    11:00 +21°C° 0 mm 2 mps 752 mmHg 26%
    12:00 +21°C° 0 mm 2 mps 752 mmHg 24%
    13:00 +22°C° 0 mm 3 mps 751 mmHg 23%
    14:00 +22°C° 0 mm 3 mps 751 mmHg 21%
    15:00 +20°C° 0 mm 2 mps 751 mmHg 24%
    16:00 +18°C° 0 mm 2 mps 750 mmHg 27%
    17:00 +16°C° 0 mm 2 mps 750 mmHg 29%
    18:00 +15°C° 0 mm 2 mps 750 mmHg 28%
    19:00 +15°C° 0 mm 2 mps 751 mmHg 27%
    20:00 +14°C° 0 mm 2 mps 751 mmHg 26%
    21:00 +14°C° 0 mm 2 mps 751 mmHg 27%
    22:00 +13°C° 0 mm 2 mps 751 mmHg 28%
    23:00 +13°C° 0 mm 2 mps 751 mmHg 30%
    Mostrar más